• In Romania
  • List of Countries
  • For 7 days
  • Water Temperature
  • Satellite Maps
  • Weather Map
  • Weather Widgets
  • user-avatar
    Login

    Hourly Weather Sinemorec

    Today, 22 September, Saturday

    Time Temperature Precipitation Wind Pressure Humidity
    00:00 +19°C° 0 mm 2 mps 760 mmHg 91%
    01:00 +19°C° 0 mm 2 mps 760 mmHg 91%
    02:00 +18°C° 0 mm 2 mps 760 mmHg 92%
    03:00 +18°C° 0 mm 2 mps 760 mmHg 91%
    04:00 +18°C° 0 mm 2 mps 760 mmHg 91%
    05:00 +18°C° 0 mm 2 mps 760 mmHg 91%
    06:00 +19°C° 0 mm 2 mps 760 mmHg 84%
    07:00 +21°C° 0 mm 2 mps 760 mmHg 78%
    08:00 +23°C° 0 mm 2 mps 761 mmHg 72%
    09:00 +25°C° 0 mm 2 mps 760 mmHg 62%
    10:00 +27°C° 0 mm 2 mps 760 mmHg 53%
    11:00 +29°C° 0 mm 2 mps 760 mmHg 43%
    12:00 +30°C° 0 mm 2 mps 760 mmHg 41%
    13:00 +30°C° 0 mm 2 mps 760 mmHg 39%
    14:00 +31°C° 0 mm 2 mps 760 mmHg 37%
    15:00 +30°C° 0 mm 2 mps 760 mmHg 41%
    16:00 +29°C° 0 mm 2 mps 759 mmHg 45%
    17:00 +28°C° 0 mm 2 mps 759 mmHg 49%
    18:00 +26°C° 0 mm 2 mps 760 mmHg 58%
    19:00 +24°C° 0 mm 2 mps 760 mmHg 66%
    20:00 +21°C° 0 mm 1 mps 760 mmHg 74%
    21:00 +21°C° 0 mm 1 mps 760 mmHg 73%
    22:00 +21°C° 0 mm 1 mps 761 mmHg 71%
    23:00 +21°C° 0 mm 1 mps 761 mmHg 70%

    Tomorrow, 23 September, Sunday

    Time Temperature Precipitation Wind Pressure Humidity
    00:00 +21°C° 0 mm 1 mps 761 mmHg 69%
    01:00 +21°C° 0 mm 1 mps 761 mmHg 68%
    02:00 +21°C° 0 mm 1 mps 761 mmHg 67%
    03:00 +19°C° 0 mm 2 mps 761 mmHg 67%
    04:00 +19°C° 0 mm 2 mps 761 mmHg 66%
    05:00 +19°C° 0 mm 2 mps 761 mmHg 66%
    06:00 +21°C° 0 mm 2 mps 761 mmHg 61%
    07:00 +22°C° 0 mm 3 mps 762 mmHg 55%
    08:00 +25°C° 0 mm 3 mps 762 mmHg 49%
    09:00 +26°C° 0 mm 4 mps 762 mmHg 46%
    10:00 +28°C° 0 mm 5 mps 762 mmHg 43%
    11:00 +29°C° 0 mm 5 mps 763 mmHg 40%
    12:00 +30°C° 0 mm 5 mps 762 mmHg 40%
    13:00 +30°C° 0 mm 5 mps 762 mmHg 40%
    14:00 +30°C° 0 mm 4 mps 762 mmHg 40%
    15:00 +29°C° 0 mm 4 mps 762 mmHg 47%
    16:00 +28°C° 0 mm 4 mps 762 mmHg 53%
    17:00 +27°C° 0 mm 4 mps 762 mmHg 59%
    18:00 +25°C° 0 mm 4 mps 762 mmHg 68%
    19:00 +22°C° 0 mm 4 mps 762 mmHg 77%
    20:00 +20°C° 0 mm 3 mps 763 mmHg 87%
    21:00 +20°C° 0 mm 3 mps 763 mmHg 88%
    22:00 +20°C° 0 mm 3 mps 763 mmHg 89%
    23:00 +20°C° 0 mm 3 mps 763 mmHg 90%

    Day after tomorrow, 24 September, Monday

    Time Temperature Precipitation Wind Pressure Humidity
    00:00 +20°C° 0 mm 3 mps 762 mmHg 91%
    01:00 +20°C° 0 mm 3 mps 762 mmHg 91%
    02:00 +19°C° 0 mm 2 mps 762 mmHg 92%
    03:00 +19°C° 0 mm 2 mps 761 mmHg 92%
    04:00 +19°C° 0 mm 2 mps 761 mmHg 92%
    05:00 +19°C° 0 mm 2 mps 760 mmHg 92%
    06:00 +21°C° 0 mm 2 mps 760 mmHg 85%
    07:00 +22°C° 0 mm 3 mps 759 mmHg 78%
    08:00 +24°C° 0 mm 3 mps 759 mmHg 71%
    09:00 +27°C° 0 mm 3 mps 759 mmHg 60%
    10:00 +29°C° 0 mm 3 mps 758 mmHg 49%
    11:00 +31°C° 0 mm 3 mps 758 mmHg 38%
    12:00 +33°C° 0 mm 4 mps 757 mmHg 35%
    13:00 +34°C° 0 mm 4 mps 757 mmHg 33%
    14:00 +35°C° 0 mm 5 mps 756 mmHg 30%
    15:00 +35°C° 0 mm 4 mps 756 mmHg 31%
    16:00 +34°C° 0 mm 4 mps 756 mmHg 33%
    17:00 +34°C° 0 mm 4 mps 756 mmHg 35%
    18:00 +32°C° 0 mm 4 mps 756 mmHg 38%
    19:00 +29°C° 0 mm 4 mps 757 mmHg 42%
    20:00 +27°C° 0 mm 4 mps 758 mmHg 46%
    21:00 +26°C° 0 mm 6 mps 758 mmHg 46%
    22:00 +23°C° 0 mm 8 mps 759 mmHg 46%
    23:00 +22°C° 0 mm 11 mps 760 mmHg 46%

    25 September, Tuesday

    Time Temperature Precipitation Wind Pressure Humidity
    00:00 +21°C° 0 mm 11 mps 760 mmHg 48%
    01:00 +19°C° 0 mm 10 mps 761 mmHg 49%
    02:00 +18°C° 0 mm 10 mps 761 mmHg 50%
    03:00 +17°C° 0 mm 10 mps 762 mmHg 52%
    04:00 +17°C° 0 mm 9 mps 763 mmHg 53%
    05:00 +16°C° 0 mm 9 mps 763 mmHg 55%
    06:00 +17°C° 0 mm 9 mps 764 mmHg 56%
    07:00 +17°C° 0 mm 8 mps 764 mmHg 57%
    08:00 +17°C° 0 mm 8 mps 765 mmHg 58%
    09:00 +17°C° 0.1 mm 8 mps 765 mmHg 61%
    10:00 +16°C° 0.1 mm 7 mps 765 mmHg 65%
    11:00 +16°C° 0.1 mm 7 mps 766 mmHg 68%
    12:00 +16°C° 0.1 mm 6 mps 766 mmHg 68%
    13:00 +16°C° 0.1 mm 6 mps 766 mmHg 68%
    14:00 +16°C° 0.1 mm 6 mps 766 mmHg 67%
    15:00 +16°C° 0.1 mm 6 mps 766 mmHg 68%
    16:00 +16°C° 0.1 mm 6 mps 766 mmHg 68%
    17:00 +16°C° 0.1 mm 6 mps 766 mmHg 68%
    18:00 +15°C° 0.1 mm 6 mps 767 mmHg 70%
    19:00 +14°C° 0.1 mm 6 mps 767 mmHg 71%
    20:00 +14°C° 0.1 mm 6 mps 767 mmHg 73%
    21:00 +13°C° 0 mm 6 mps 767 mmHg 68%
    22:00 +13°C° 0 mm 6 mps 767 mmHg 63%
    23:00 +13°C° 0 mm 6 mps 767 mmHg 58%

    26 September, Wednesday

    Time Temperature Precipitation Wind Pressure Humidity
    00:00 +13°C° 0 mm 6 mps 767 mmHg 57%
    01:00 +11°C° 0 mm 6 mps 767 mmHg 56%
    02:00 +11°C° 0 mm 6 mps 767 mmHg 55%
    03:00 +11°C° 0 mm 6 mps 767 mmHg 55%
    04:00 +11°C° 0 mm 6 mps 767 mmHg 55%
    05:00 +11°C° 0 mm 6 mps 767 mmHg 55%
    06:00 +13°C° 0 mm 6 mps 767 mmHg 52%
    07:00 +14°C° 0 mm 6 mps 767 mmHg 49%
    08:00 +16°C° 0 mm 6 mps 767 mmHg 46%
    09:00 +17°C° 0 mm 6 mps 767 mmHg 43%
    10:00 +19°C° 0 mm 6 mps 766 mmHg 40%
    11:00 +20°C° 0 mm 6 mps 766 mmHg 38%
    12:00 +20°C° 0 mm 6 mps 766 mmHg 38%
    13:00 +20°C° 0 mm 6 mps 765 mmHg 38%
    14:00 +19°C° 0 mm 6 mps 765 mmHg 39%
    15:00 +19°C° 0 mm 6 mps 765 mmHg 40%
    16:00 +17°C° 0 mm 6 mps 764 mmHg 42%
    17:00 +17°C° 0 mm 6 mps 764 mmHg 43%
    18:00 +16°C° 0 mm 6 mps 765 mmHg 46%
    19:00 +15°C° 0 mm 6 mps 765 mmHg 50%
    20:00 +14°C° 0 mm 6 mps 765 mmHg 53%
    21:00 +13°C° 0.3 mm 6 mps 765 mmHg 58%
    22:00 +12°C° 0.3 mm 7 mps 765 mmHg 63%
    23:00 +12°C° 0.3 mm 7 mps 765 mmHg 68%

    27 September, Thursday

    Time Temperature Precipitation Wind Pressure Humidity
    00:00 +12°C° 0.4 mm 8 mps 765 mmHg 69%
    01:00 +11°C° 0.4 mm 9 mps 765 mmHg 69%
    02:00 +11°C° 0.4 mm 9 mps 765 mmHg 70%
    03:00 +11°C° 0.4 mm 10 mps 765 mmHg 70%
    04:00 +11°C° 0.4 mm 11 mps 765 mmHg 69%
    05:00 +9°C° 0.4 mm 11 mps 765 mmHg 69%
    06:00 +10°C° 0.8 mm 12 mps 765 mmHg 69%
    07:00 +10°C° 0.8 mm 12 mps 765 mmHg 69%
    08:00 +12°C° 0.8 mm 12 mps 765 mmHg 69%
    09:00 +12°C° 0.6 mm 13 mps 765 mmHg 67%
    10:00 +13°C° 0.6 mm 13 mps 765 mmHg 65%
    11:00 +14°C° 0.6 mm 13 mps 765 mmHg 62%
    12:00 +14°C° 0.5 mm 13 mps 764 mmHg 63%
    13:00 +14°C° 0.5 mm 13 mps 764 mmHg 64%
    14:00 +14°C° 0.5 mm 12 mps 764 mmHg 65%
    15:00 +14°C° 0.1 mm 12 mps 763 mmHg 64%
    16:00 +14°C° 0.1 mm 12 mps 763 mmHg 63%
    17:00 +14°C° 0.1 mm 12 mps 763 mmHg 62%
    18:00 +14°C° 0.1 mm 12 mps 762 mmHg 64%
    19:00 +14°C° 0.1 mm 12 mps 762 mmHg 66%
    20:00 +13°C° 0.1 mm 12 mps 762 mmHg 68%
    21:00 +13°C° 0.1 mm 12 mps 762 mmHg 69%
    22:00 +13°C° 0.1 mm 11 mps 761 mmHg 70%
    23:00 +13°C° 0.1 mm 11 mps 761 mmHg 70%
    Show more